Radiation Dose at Monitoring Post of Fukushima Daini Nuclear Power Station
Date,Time,MP-1(microSv/h),MP-2(microSv/h),MP-3(microSv/h),MP-4(microSv/h),MP-5(microSv/h),MP-6(microSv/h),MP-7(microSv/h),Wind Direction,Wind Velocity(m/s),Rain
2020/02/20,00:00,0.178,0.166,0.272,0.252,0.251,0.138,0.085,west-southwest,6.0,No
2020/02/20,00:10,0.180,0.165,0.272,0.252,0.251,0.138,0.084,west-southwest,7.4,No
2020/02/20,00:20,0.179,0.165,0.273,0.252,0.251,0.138,0.085,west-southwest,7.5,No
2020/02/20,00:30,0.180,0.164,0.271,0.252,0.251,0.138,0.084,west-southwest,7.3,No
2020/02/20,00:40,0.179,0.165,0.272,0.252,0.250,0.138,0.084,west-southwest,7.0,No
2020/02/20,00:50,0.180,0.166,0.274,0.253,0.251,0.138,0.084,west-southwest,6.4,No
2020/02/20,01:00,0.180,0.164,0.272,0.253,0.252,0.139,0.085,west,5.7,No
2020/02/20,01:10,0.178,0.165,0.273,0.252,0.251,0.138,0.084,west-southwest,5.6,No
2020/02/20,01:20,0.180,0.164,0.272,0.253,0.252,0.139,0.085,west,5.8,No
2020/02/20,01:30,0.181,0.166,0.271,0.252,0.251,0.137,0.085,west,4.2,No
2020/02/20,01:40,0.180,0.165,0.273,0.253,0.252,0.139,0.085,west,4.5,No
2020/02/20,01:50,0.179,0.165,0.272,0.252,0.251,0.138,0.084,west,5.6,No
2020/02/20,02:00,0.179,0.165,0.272,0.253,0.250,0.138,0.084,west,5.6,No
2020/02/20,02:10,0.179,0.166,0.272,0.253,0.251,0.138,0.085,west,5.4,No
2020/02/20,02:20,0.180,0.165,0.272,0.253,0.252,0.138,0.085,west,5.0,No
2020/02/20,02:30,0.180,0.164,0.273,0.252,0.252,0.138,0.085,west,5.3,No
2020/02/20,02:40,0.179,0.165,0.272,0.252,0.251,0.139,0.084,west,5.1,No
2020/02/20,02:50,0.180,0.165,0.271,0.254,0.251,0.138,0.085,west,5.0,No
2020/02/20,03:00,0.179,0.165,0.272,0.252,0.251,0.139,0.084,west-southwest,4.5,No
2020/02/20,03:10,0.179,0.165,0.272,0.252,0.250,0.138,0.085,southwest,4.9,No
2020/02/20,03:20,0.180,0.166,0.272,0.253,0.251,0.139,0.085,southwest,5.0,No
2020/02/20,03:30,0.179,0.166,0.270,0.253,0.251,0.138,0.085,southwest,4.3,No
2020/02/20,03:40,0.181,0.165,0.272,0.252,0.251,0.138,0.085,southwest,3.1,No
2020/02/20,03:50,0.179,0.164,0.273,0.253,0.251,0.139,0.085,south-southwest,2.7,No
2020/02/20,04:00,0.180,0.164,0.271,0.252,0.253,0.139,0.086,south,2.7,No
2020/02/20,04:10,0.179,0.166,0.272,0.254,0.251,0.139,0.085,southwest,2.3,No
2020/02/20,04:20,0.180,0.165,0.272,0.253,0.251,0.139,0.086,southwest,3.4,No
2020/02/20,04:30,0.179,0.165,0.273,0.252,0.251,0.139,0.085,southwest,3.0,No
2020/02/20,04:40,0.180,0.165,0.272,0.253,0.252,0.138,0.086,south-southwest,2.2,No
2020/02/20,04:50,0.180,0.166,0.273,0.253,0.252,0.139,0.085,west-southwest,1.6,No
2020/02/20,05:00,0.180,0.166,0.271,0.253,0.251,0.138,0.084,west,2.4,No
2020/02/20,05:10,0.179,0.166,0.274,0.253,0.252,0.139,0.085,west-southwest,2.4,No
2020/02/20,05:20,0.180,0.165,0.272,0.252,0.251,0.139,0.086,southwest,2.1,No
2020/02/20,05:30,0.180,0.166,0.271,0.253,0.253,0.139,0.085,south,0.8,No
2020/02/20,05:40,0.180,0.165,0.272,0.254,0.251,0.138,0.086,south-southwest,1.4,No
2020/02/20,05:50,0.180,0.166,0.273,0.253,0.251,0.139,0.085,southwest,2.6,No
2020/02/20,06:00,0.179,0.165,0.272,0.253,0.251,0.140,0.086,west-southwest,2.8,No
2020/02/20,06:10,0.180,0.165,0.272,0.252,0.252,0.139,0.085,west-southwest,4.6,No
2020/02/20,06:20,0.180,0.166,0.271,0.252,0.251,0.139,0.085,west-southwest,5.2,No
2020/02/20,06:30,0.180,0.165,0.272,0.253,0.251,0.139,0.085,southwest,5.3,No
2020/02/20,06:40,0.179,0.165,0.272,0.252,0.252,0.139,0.085,west-southwest,5.0,No
2020/02/20,06:50,0.179,0.165,0.271,0.252,0.251,0.138,0.084,southwest,5.3,No
2020/02/20,07:00,0.180,0.167,0.273,0.254,0.251,0.138,0.085,west-southwest,5.3,No
2020/02/20,07:10,0.180,0.166,0.271,0.252,0.250,0.138,0.086,west-southwest,4.8,No
2020/02/20,07:20,0.180,0.165,0.272,0.253,0.252,0.139,0.086,west-southwest,4.8,No
2020/02/20,07:30,0.181,0.166,0.272,0.253,0.252,0.138,0.084,west-southwest,3.1,No
2020/02/20,07:40,0.180,0.166,0.272,0.251,0.250,0.139,0.085,west-southwest,1.7,No
2020/02/20,07:50,0.179,0.166,0.272,0.252,0.250,0.138,0.085,west-southwest,2.0,No
2020/02/20,08:00,0.179,0.166,0.272,0.253,0.251,0.138,0.085,southwest,0.9,No
2020/02/20,08:10,0.179,0.165,0.272,0.252,0.251,0.139,0.085,-,CALM,No
2020/02/20,08:20,0.180,0.166,0.272,0.253,0.251,0.138,0.085,-,CALM,No
2020/02/20,08:30,0.180,0.166,0.272,0.253,0.252,0.139,0.086,east,0.9,No
2020/02/20,08:40,0.179,0.165,0.272,0.253,0.252,0.138,0.085,northeast,2.0,No
2020/02/20,08:50,0.180,0.167,0.273,0.252,0.251,0.139,0.085,north-northeast,1.9,No
2020/02/20,09:00,0.180,0.165,0.274,0.252,0.252,0.138,0.085,north,2.7,No
2020/02/20,09:10,0.180,0.165,0.272,0.253,0.252,0.139,0.086,north,3.0,No
2020/02/20,09:20,0.180,0.165,0.272,0.253,0.252,0.138,0.086,north,2.2,No
2020/02/20,09:30,0.180,0.166,0.272,0.251,0.254,0.139,0.085,north-northeast,1.1,No
2020/02/20,09:40,0.179,0.165,0.272,0.253,0.251,0.139,0.085,north-northeast,2.0,No
2020/02/20,09:50,0.180,0.165,0.272,0.253,0.250,0.139,0.085,north-northeast,2.1,No
2020/02/20,10:00,0.179,0.164,0.272,0.250,0.253,0.139,0.085,north-northeast,2.8,No
2020/02/20,10:10,0.180,0.165,0.271,0.254,0.251,0.138,0.085,north,3.6,No
2020/02/20,10:20,0.180,0.165,0.273,0.251,0.252,0.138,0.085,north-northeast,6.0,No
2020/02/20,10:30,0.179,0.165,0.272,0.254,0.250,0.137,0.084,north-northeast,6.0,No
2020/02/20,10:40,0.180,0.164,0.271,0.251,0.252,0.138,0.085,northeast,5.2,No
2020/02/20,10:50,0.180,0.165,0.272,0.251,0.251,0.138,0.085,northeast,6.0,No
2020/02/20,11:00,0.179,0.164,0.272,0.251,0.251,0.138,0.086,north-northeast,4.7,No
2020/02/20,11:10,0.180,0.165,0.270,0.251,0.253,0.138,0.085,northeast,5.2,No
2020/02/20,11:20,0.180,0.166,0.272,0.251,0.251,0.138,0.086,northeast,5.7,No
2020/02/20,11:30,0.179,0.165,0.272,0.251,0.252,0.138,0.085,north-northeast,5.6,No
2020/02/20,11:40,0.180,0.166,0.271,0.251,0.251,0.140,0.085,north-northeast,5.8,No
2020/02/20,11:50,0.177,0.165,0.272,0.253,0.252,0.137,0.084,north-northeast,5.3,No
2020/02/20,12:00,0.181,0.166,0.273,0.253,0.254,0.140,0.085,north-northeast,5.9,No
2020/02/20,12:10,0.180,0.166,0.272,0.250,0.251,0.139,0.084,northeast,5.2,No
2020/02/20,12:20,0.179,0.166,0.273,0.251,0.252,0.139,0.084,northeast,5.2,No
2020/02/20,12:30,0.179,0.164,0.273,0.253,0.251,0.138,0.085,northeast,4.3,No
2020/02/20,12:40,0.181,0.166,0.271,0.251,0.253,0.140,0.085,northeast,4.9,No
2020/02/20,12:50,0.180,0.166,0.272,0.252,0.252,0.139,0.085,northeast,5.2,No
2020/02/20,13:00,0.180,0.164,0.273,0.253,0.253,0.139,0.085,northeast,4.7,No
2020/02/20,13:10,0.180,0.165,0.271,0.252,0.254,0.138,0.085,northeast,4.1,No
2020/02/20,13:20,0.179,0.165,0.274,0.254,0.253,0.138,0.085,northeast,4.2,No
2020/02/20,13:30,0.180,0.165,0.271,0.252,0.251,0.138,0.085,northeast,3.8,No
2020/02/20,13:40,0.180,0.165,0.272,0.252,0.251,0.140,0.086,northeast,3.6,No
2020/02/20,13:50,0.180,0.166,0.272,0.254,0.250,0.139,0.085,northeast,3.2,No
2020/02/20,14:00,0.179,0.165,0.272,0.252,0.251,0.138,0.085,north-northeast,2.8,No
2020/02/20,14:10,0.180,0.166,0.271,0.252,0.250,0.139,0.085,north-northeast,2.4,No
2020/02/20,14:20,0.179,0.165,0.272,0.253,0.252,0.139,0.085,north-northeast,2.9,No
2020/02/20,14:30,0.180,0.165,0.270,0.252,0.253,0.139,0.085,north-northeast,3.0,No
2020/02/20,14:40,0.180,0.165,0.272,0.252,0.251,0.138,0.085,north-northeast,3.3,No
2020/02/20,14:50,0.180,0.166,0.273,0.254,0.252,0.139,0.086,northeast,3.2,No
2020/02/20,15:00,0.179,0.165,0.272,0.253,0.252,0.139,0.085,northeast,3.9,No
2020/02/20,15:10,0.180,0.165,0.272,0.251,0.252,0.138,0.084,north-northeast,3.1,No
2020/02/20,15:20,0.179,0.166,0.272,0.254,0.252,0.138,0.084,northeast,3.2,No
2020/02/20,15:30,0.180,0.165,0.272,0.253,0.252,0.139,0.085,north-northeast,3.2,No
2020/02/20,15:40,0.180,0.165,0.272,0.253,0.252,0.139,0.085,northeast,3.2,No
2020/02/20,15:50,0.179,0.167,0.272,0.255,0.253,0.140,0.085,northeast,2.8,No
2020/02/20,16:00,0.179,0.166,0.272,0.253,0.251,0.139,0.085,northeast,2.7,No
2020/02/20,16:10,0.180,0.164,0.272,0.253,0.252,0.139,0.085,northeast,2.2,No
2020/02/20,16:20,0.179,0.166,0.274,0.254,0.253,0.139,0.085,northeast,2.0,No
2020/02/20,16:30,0.179,0.165,0.271,0.252,0.252,0.139,0.085,north-northeast,3.0,No
2020/02/20,16:40,0.181,0.165,0.271,0.253,0.252,0.140,0.085,north-northeast,3.1,No
2020/02/20,16:50,0.180,0.166,0.272,0.254,0.253,0.139,0.085,north-northeast,3.3,No
2020/02/20,17:00,0.181,0.166,0.274,0.251,0.253,0.139,0.085,north,2.6,No
2020/02/20,17:10,0.180,0.166,0.270,0.252,0.250,0.139,0.085,north-northwest,2.2,No
2020/02/20,17:20,0.180,0.165,0.273,0.254,0.252,0.138,0.085,northwest,1.8,No
2020/02/20,17:30,0.181,0.166,0.272,0.254,0.253,0.140,0.085,north-northwest,2.2,No
2020/02/20,17:40,0.180,0.166,0.272,0.253,0.252,0.139,0.084,north,3.9,No
2020/02/20,17:50,0.180,0.165,0.273,0.254,0.252,0.139,0.084,north-northwest,4.0,No
2020/02/20,18:00,0.180,0.166,0.273,0.253,0.254,0.139,0.085,north-northwest,3.7,No
2020/02/20,18:10,0.179,0.165,0.273,0.253,0.252,0.138,0.086,north-northwest,3.5,No
2020/02/20,18:20,0.181,0.165,0.273,0.253,0.252,0.138,0.086,north-northwest,2.7,No
2020/02/20,18:30,0.179,0.166,0.274,0.253,0.252,0.139,0.085,west-northwest,1.5,No
2020/02/20,18:40,0.179,0.166,0.273,0.253,0.251,0.139,0.085,west,1.8,No
2020/02/20,18:50,0.180,0.166,0.272,0.253,0.252,0.140,0.085,west-northwest,1.2,No
2020/02/20,19:00,0.180,0.166,0.273,0.253,0.252,0.139,0.085,west-northwest,2.2,No
2020/02/20,19:10,0.179,0.166,0.272,0.253,0.251,0.139,0.085,west-northwest,2.7,No
2020/02/20,19:20,0.180,0.166,0.272,0.254,0.252,0.139,0.085,northwest,3.7,No
2020/02/20,19:30,0.181,0.165,0.273,0.254,0.251,0.138,0.085,northwest,4.5,No
2020/02/20,19:40,0.182,0.166,0.272,0.252,0.252,0.139,0.085,northwest,4.8,No
2020/02/20,19:50,0.180,0.166,0.273,0.252,0.252,0.139,0.085,northwest,4.2,No
2020/02/20,20:00,0.180,0.166,0.273,0.254,0.253,0.140,0.084,northwest,4.3,No
2020/02/20,20:10,0.181,0.165,0.271,0.254,0.252,0.140,0.085,northwest,4.0,No
2020/02/20,20:20,0.180,0.165,0.271,0.253,0.252,0.140,0.085,northwest,3.3,No
2020/02/20,20:30,0.181,0.166,0.273,0.252,0.251,0.140,0.085,northwest,4.0,No
2020/02/20,20:40,0.180,0.166,0.272,0.254,0.252,0.139,0.086,northwest,4.8,No
2020/02/20,20:50,0.180,0.165,0.273,0.254,0.252,0.140,0.086,northwest,5.3,No
2020/02/20,21:00,0.180,0.167,0.272,0.253,0.252,0.139,0.085,north-northwest,4.7,No
2020/02/20,21:10,0.182,0.166,0.273,0.252,0.252,0.140,0.086,north-northwest,4.9,No
2020/02/20,21:20,0.180,0.167,0.273,0.253,0.253,0.139,0.085,north-northwest,5.2,No
2020/02/20,21:30,0.180,0.166,0.272,0.254,0.252,0.139,0.086,north-northwest,3.9,No
2020/02/20,21:40,0.180,0.167,0.273,0.253,0.253,0.139,0.086,north-northwest,4.5,No
2020/02/20,21:50,0.180,0.166,0.273,0.252,0.252,0.140,0.085,northwest,4.2,No
2020/02/20,22:00,0.181,0.165,0.273,0.253,0.252,0.138,0.085,north-northwest,4.6,No
2020/02/20,22:10,0.180,0.166,0.273,0.253,0.254,0.139,0.086,north,4.5,No
2020/02/20,22:20,0.180,0.166,0.272,0.254,0.252,0.139,0.086,north-northwest,2.4,No
2020/02/20,22:30,0.180,0.165,0.273,0.254,0.252,0.139,0.085,north-northwest,3.2,No
2020/02/20,22:40,0.181,0.165,0.274,0.254,0.252,0.139,0.086,north-northwest,3.2,No
2020/02/20,22:50,0.181,0.166,0.273,0.253,0.253,0.139,0.086,northwest,2.9,No
2020/02/20,23:00,0.180,0.166,0.274,0.254,0.252,0.139,0.085,northwest,4.0,No
2020/02/20,23:10,0.179,0.166,0.273,0.253,0.251,0.140,0.086,northwest,4.3,No
2020/02/20,23:20,0.181,0.166,0.273,0.253,0.252,0.139,0.085,northwest,4.5,No
2020/02/20,23:30,0.180,0.166,0.274,0.254,0.253,0.139,0.085,north-northwest,5.6,No
2020/02/20,23:40,0.180,0.166,0.273,0.253,0.252,0.139,0.086,north-northwest,6.2,No
2020/02/20,23:50,0.181,0.165,0.271,0.254,0.252,0.138,0.086,north-northwest,5.4,No
